Location: Seattle
(47.6064°N, 122.3308°W)
Time: 14:56:23
(UTC-08:00)

S-56A Canister/Altair - Pass Details

Date: 06 October 2022
Orbit: 638 x 2494 km, 38.9° (Epoch: 03 December)

Event Time Altitude Azimuth Distance (km) Brightness Sun altitude
Exits shadow 04:49:27 40° 222° (SW) 1,980 9.1 -25.0°
Maximum altitude 04:51:07 44° 196° (SSW) 1,781 9.0 -24.8°
Drops below altitude 10° 04:57:36 10° 127° (SE) 2,815 10.8 -23.7°
Sets 04:59:56 0° 120° (ESE) 3,572 11.5 -23.4°
